Location: Krakow
(50.0830°N, 19.9170°E)
Time: 12:10:14
(UTC+01:00)

Vanguard 1 - Visible Passes

Search period start: 31 January 2023 00:00
Search period end: 10 February 2023 00:00
Orbit: 649 x 3831 km, 34.2° (Epoch: 30 January)

Date Brightness Start Highest point End Pass type
(mag) Time Alt. Az. Time Alt. Az. Time Alt. Az.
31 Jan 12.7 04:33:44 10° S 04:40:02 21° SE 04:49:12 10° E visible
01 Feb 12.6 04:53:07 10° SSW 04:59:57 26° SSE 05:10:29 10° E visible
02 Feb 12.5 05:12:48 10° SSW 05:20:00 30° SSE 05:31:33 10° ESE visible
03 Feb 12.6 03:18:36 10° SSE 03:21:24 12° SE 03:24:56 10° ESE visible
03 Feb 12.4 05:32:41 10° SW 05:40:09 33° SSE 05:52:28 10° ESE visible
04 Feb 12.4 03:38:16 13° SSE 03:41:14 16° SE 03:47:02 10° ESE visible
04 Feb 12.4 05:52:43 10° SW 06:00:24 34° SSE 06:13:15 10° ESE visible
05 Feb 12.2 03:57:54 16° S 04:01:10 20° SSE 04:08:25 10° ESE visible
05 Feb 12.4 06:12:52 10° SW 06:20:44 35° S 06:33:55 10° ESE visible
06 Feb 12.0 04:17:30 17° SSW 04:21:12 24° SSE 04:29:28 10° ESE visible
07 Feb 11.9 04:37:04 16° SSW 04:41:20 27° SSE 04:50:20 10° ESE visible
08 Feb 12.6 02:43:57 11° SE 02:43:57 11° SE 02:45:20 10° ESE visible
08 Feb 11.9 04:56:38 15° SW 05:01:33 28° SSE 05:11:04 10° ESE visible
09 Feb 12.3 03:03:29 15° SE 03:03:29 15° SE 03:07:05 10° ESE visible
09 Feb 12.0 05:16:10 12° SW 05:21:51 29° S 05:31:38 10° ESE visible
